TimeCEST,TemperatureF,Dew PointF,Humidity,Sea Level PressureIn,VisibilityMPH,Wind Direction,Wind SpeedMPH,Gust SpeedMPH,PrecipitationIn,Events,Conditions,WindDirDegrees,DateUTC
12:25 AM,59.0,59.0,100,30.04,0.1,Variable,2.3,-,N/A,,Unknown,0,2013-07-24 22:25:00
1:25 AM,57.2,57.2,100,30.04,0.1,Variable,1.2,-,N/A,,Unknown,0,2013-07-24 23:25:00
2:00 AM,56,56,100,30.05,0,Calm,Calm,,,Fog,Fog,,2013-07-25 00:00:00
2:25 AM,55.4,55.4,100,30.04,0.1,Variable,1.2,-,N/A,,Unknown,0,2013-07-25 00:25:00
3:25 AM,53.6,53.6,100,30.04,0.1,Variable,1.2,-,N/A,,Unknown,0,2013-07-25 01:25:00
4:16 AM,53.6,53.6,100,30.04,3.1,Variable,1.2,-,N/A,,Partly Cloudy,0,2013-07-25 02:16:00
4:20 AM,53.6,53.6,100,30.04,-9999.0,Variable,1.2,-,N/A,,Scattered Clouds,0,2013-07-25 02:20:00
4:25 AM,53.6,53.6,100,30.04,0.4,Variable,1.2,-,N/A,,Scattered Clouds,0,2013-07-25 02:25:00
4:45 AM,51.8,51.8,100,30.04,3.1,Variable,1.2,-,N/A,,Mostly Cloudy,0,2013-07-25 02:45:00
4:55 AM,51.8,51.8,100,30.01,0.9,Variable,1.2,-,N/A,,Partly Cloudy,0,2013-07-25 02:55:00
4:57 AM,51.8,51.8,100,30.01,-9999.0,Variable,1.2,-,N/A,,Partly Cloudy,0,2013-07-25 02:57:00
5:00 AM,52,52,99,30.05,0,,2.2,,,,Clear,,2013-07-25 03:00:00
5:12 AM,51.8,51.8,100,30.01,5.0,Variable,1.2,-,N/A,,Partly Cloudy,0,2013-07-25 03:12:00
5:13 AM,51.8,51.8,100,30.04,3.7,Variable,1.2,-,N/A,,Clear,0,2013-07-25 03:13:00
5:25 AM,51.8,51.8,100,30.01,3.7,Variable,1.2,-,N/A,,Clear,0,2013-07-25 03:25:00
5:38 AM,51.8,51.8,100,30.01,2.5,Variable,1.2,-,N/A,,Clear,0,2013-07-25 03:38:00
6:23 AM,50.0,50.0,100,30.01,1.9,Variable,1.2,-,N/A,,Clear,0,2013-07-25 04:23:00
6:25 AM,51.8,51.8,100,30.01,1.9,Variable,1.2,-,N/A,,Clear,0,2013-07-25 04:25:00
7:25 AM,55.4,55.4,100,30.01,1.9,Calm,Calm,-,N/A,,Clear,0,2013-07-25 05:25:00
7:37 AM,57.2,57.2,100,30.04,2.5,Calm,Calm,-,N/A,,Clear,0,2013-07-25 05:37:00
8:00 AM,61,60,94,30.02,2,,2.2,,,,Mist,,2013-07-25 06:00:00
8:25 AM,64.4,60.8,88,30.04,3.7,WNW,3.5,-,N/A,,Scattered Clouds,300,2013-07-25 06:25:00
8:34 AM,64.4,60.8,88,30.04,3.7,WNW,3.5,-,N/A,,Scattered Clouds,290,2013-07-25 06:34:00
8:54 AM,66.2,62.6,88,30.04,5.0,West,5.8,-,N/A,,Scattered Clouds,280,2013-07-25 06:54:00
9:25 AM,68.0,64.4,88,30.01,6.2,Variable,2.3,-,N/A,,Scattered Clouds,0,2013-07-25 07:25:00
10:25 AM,71.6,64.4,78,30.01,6.2,WSW,5.8,-,N/A,,Mostly Cloudy,250,2013-07-25 08:25:00
11:00 AM,73,65,69,29.97,12,SSW,6.7,,,,Mostly Cloudy,210,2013-07-25 09:00:00
11:25 AM,73.4,64.4,73,30.04,6.2,WSW,8.1,-,N/A,,Mostly Cloudy,240,2013-07-25 09:25:00
12:25 PM,73.4,64.4,73,30.01,6.2,SSW,9.2,-,N/A,,Mostly Cloudy,200,2013-07-25 10:25:00
1:25 PM,75.2,64.4,69,30.01,6.2,SSW,8.1,-,N/A,,Mostly Cloudy,210,2013-07-25 11:25:00
2:00 PM,66,63,85,30.00,5,WNW,8.9,,,Rain,Light Rain Showers,290,2013-07-25 12:00:00
2:10 PM,60.8,60.8,100,30.04,3.1,West,8.1,20.7,N/A,Rain,Rain Showers,270,2013-07-25 12:10:00
2:13 PM,62.6,62.6,100,30.04,2.5,West,5.8,-,N/A,Rain,Rain Showers,270,2013-07-25 12:13:00
2:25 PM,64.4,62.6,94,30.01,2.5,South,6.9,-,N/A,Rain,Rain Showers,190,2013-07-25 12:25:00
2:35 PM,66.2,66.2,100,30.01,4.3,SSW,5.8,-,N/A,,Mostly Cloudy,200,2013-07-25 12:35:00
2:39 PM,68.0,66.2,94,30.01,6.2,SSW,3.5,-,N/A,,Mostly Cloudy,200,2013-07-25 12:39:00
3:25 PM,73.4,64.4,73,30.01,6.2,SSW,3.5,-,N/A,,Scattered Clouds,210,2013-07-25 13:25:00
3:35 PM,73.4,64.4,73,30.01,6.2,WSW,5.8,-,N/A,,Scattered Clouds,250,2013-07-25 13:35:00
4:25 PM,77.0,64.4,65,30.01,6.2,WSW,5.8,-,N/A,,Scattered Clouds,250,2013-07-25 14:25:00
5:00 PM,77,64,55,29.94,12,West,6.7,,,,Partly Cloudy,260,2013-07-25 15:00:00
5:25 PM,77.0,62.6,61,30.01,6.2,West,6.9,-,N/A,,Partly Cloudy,280,2013-07-25 15:25:00
6:25 PM,73.4,66.2,78,30.01,6.2,NE,6.9,-,N/A,,Partly Cloudy,40,2013-07-25 16:25:00
7:25 PM,73.4,66.2,78,30.01,6.2,NNW,3.5,-,N/A,,Scattered Clouds,330,2013-07-25 17:25:00
8:25 PM,71.6,66.2,83,30.01,6.2,Variable,1.2,-,N/A,,Partly Cloudy,0,2013-07-25 18:25:00
9:25 PM,66.2,60.8,83,30.01,6.2,Variable,1.2,-,N/A,,Mostly Cloudy,0,2013-07-25 19:25:00
10:25 PM,62.6,60.8,94,30.04,6.2,Variable,1.2,-,N/A,,Mostly Cloudy,0,2013-07-25 20:25:00
11:00 PM,62,61,94,30.03,12,ESE,4.5,,,,Partly Cloudy,120,2013-07-25 21:00:00
11:25 PM,60.8,60.8,100,30.04,6.2,SSE,4.6,-,N/A,,Partly Cloudy,160,2013-07-25 21:25:00